Weather History for Cecil Field, FL

Change the Weather History Date:

Thursday, August 29, 2013

  Actual Average (KJAX) Record (KJAX)
Temperature  
Mean Temperature 80 °F 81 °F  
Max Temperature 91 °F 90 °F 99 °F (1990)
Min Temperature 68 °F 72 °F 63 °F (1984)
Degree Days  
Heating Degree Days 0 0  
Month to date heating degree days 0  
Since 1 June heating degree days 0  
Since 1 July heating degree days 0  
Cooling Degree Days 14 16  
Month to date cooling degree days 487  
Year to date cooling degree days 1956  
Since 1 June cooling degree days 1472  
Growing Degree Days 30 (Base 50)    
Moisture  
Dew Point 70 °F    
Average Humidity 82    
Maximum Humidity 100    
Minimum Humidity 46    
Precipitation  
Precipitation 0.00 in 0.26 in 2.73 in (1968)
Month to date precipitation 6.29  
Year to date precipitation 34.85  
Snow  
Snow 0.00 in 0.00 in 0.00 in (2002)
Month to date snowfall 0.0  
Since 1 June snowfall 0.0  
Since 1 July snowfall 0.0  
Snow Depth -    
Sea Level Pressure  
Sea Level Pressure 29.99 in    
Wind  
Wind Speed 3 mph (SW)    
Max Wind Speed 13 mph    
Max Gust Speed -    
Visibility 10 miles    
Events      
T = Trace of Precipitation, MM = Missing Value Source: NWS Daily Summary

Daily Weather History Graph

Daily Weather History Graph

Search for Another Location

Airport:

Trip Planner

Search our weather history database for the weather conditions in past years. The results will help you decide how hot, cold, wet, or windy it might be!

Date:

Astronomy

Aug. 29, 2013 Rise Set
Actual Time 7:02 AM EDT 7:53 PM EDT
Civil Twilight 6:38 AM EDT 8:17 PM EDT
Nautical Twilight 6:09 AM EDT 8:46 PM EDT
Astronomical Twilight 5:39 AM EDT 9:16 PM EDT
Moon 1:05 AM EDT (8/29) 3:08 PM EDT (8/29)
Length of Visible Light 13h 39m
Length of Day
12h 50m
Last Quarter, 38% of the Moon is Illuminated
Aug 29
Last Quarter
Sep 5
New
Sep 12
First Quarter
Sep 19
Full
Sep 26
Last Quarter

Hourly Weather History & Observations

Time (EDT) Temp. Heat Index Dew Point Humidity Pressure Visibility Wind Dir Wind Speed Gust Speed Precip Events Conditions
12:15 AM 77.0 °F - 68.0 °F 74% 30.03 in 10.0 mi South 4.6 mph - N/A   Mostly Cloudy
12:35 AM 75.2 °F - 68.0 °F 78% 30.03 in 10.0 mi South 5.8 mph - N/A   Mostly Cloudy
12:55 AM 75.2 °F - 68.0 °F 78% 30.03 in 10.0 mi South 5.8 mph - N/A   Scattered Clouds
1:15 AM 75.2 °F - 68.0 °F 78% 30.03 in 10.0 mi South 4.6 mph - N/A   Partly Cloudy
1:35 AM 75.2 °F - 68.0 °F 78% 30.03 in 10.0 mi South 3.5 mph - N/A   Scattered Clouds
1:55 AM 75.2 °F - 68.0 °F 78% 30.03 in 10.0 mi South 3.5 mph - N/A   Mostly Cloudy
2:15 AM 75.2 °F - 68.0 °F 78% 30.03 in 10.0 mi Calm Calm - N/A   Scattered Clouds
2:35 AM 75.2 °F - 68.0 °F 78% 30.02 in 10.0 mi Calm Calm - N/A   Scattered Clouds
2:55 AM 75.2 °F - 68.0 °F 78% 30.02 in 10.0 mi South 3.5 mph - N/A   Scattered Clouds
3:15 AM 73.4 °F - 68.0 °F 83% 30.01 in 10.0 mi Calm Calm - N/A   Scattered Clouds
3:35 AM 73.4 °F - 68.0 °F 83% 30.01 in 10.0 mi Calm Calm - N/A   Clear
3:55 AM 71.6 °F - 69.8 °F 94% 30.01 in 10.0 mi Calm Calm - N/A   Clear
4:15 AM 71.6 °F - 68.0 °F 88% 30.01 in 10.0 mi Calm Calm - N/A   Clear
4:35 AM 69.8 °F - 68.0 °F 94% 30.01 in 10.0 mi Calm Calm - N/A   Clear
4:55 AM 68.0 °F - 68.0 °F 100% 30.01 in 10.0 mi Calm Calm - N/A   Clear
5:15 AM 68.0 °F - 68.0 °F 100% 30.01 in 10.0 mi Calm Calm - N/A   Clear
5:35 AM 68.0 °F - 68.0 °F 100% 30.01 in 10.0 mi Calm Calm - N/A   Clear
6:15 AM 68.0 °F - 68.0 °F 100% 30.01 in 10.0 mi Calm Calm - N/A   Clear
6:35 AM 68.0 °F - 68.0 °F 100% 30.02 in 10.0 mi Calm Calm - N/A   Partly Cloudy
6:50 AM 68.0 °F - 68.0 °F 100% 30.02 in 7.0 mi Calm Calm - N/A   Partly Cloudy
7:50 AM 71.6 °F - 71.6 °F 100% 30.03 in 10.0 mi Calm Calm - N/A   Mostly Cloudy
8:50 AM 77.0 °F - 73.4 °F 89% 30.04 in 10.0 mi Variable 4.6 mph - N/A   Partly Cloudy
9:50 AM 82.4 °F 89.5 °F 75.2 °F 79% 30.04 in 10.0 mi West 9.2 mph - N/A   Clear
10:50 AM 86.0 °F 93.4 °F 73.4 °F 66% 30.03 in 10.0 mi WNW 5.8 mph - N/A   Clear
11:50 AM 87.8 °F 93.8 °F 71.6 °F 58% 30.02 in 10.0 mi West 10.4 mph - N/A   Clear
12:50 PM 89.6 °F 94.7 °F 69.8 °F 52% 30.00 in 10.0 mi West 12.7 mph - N/A   Partly Cloudy
1:50 PM 91.4 °F 95.4 °F 68.0 °F 46% 29.99 in 10.0 mi WSW 12.7 mph - N/A   Scattered Clouds
2:50 PM 91.4 °F 96.8 °F 69.8 °F 49% 29.97 in 10.0 mi West 6.9 mph - N/A   Scattered Clouds
3:50 PM 91.4 °F 96.8 °F 69.8 °F 49% 29.95 in 10.0 mi West 11.5 mph - N/A   Scattered Clouds
4:50 PM 91.4 °F 96.8 °F 69.8 °F 49% 29.94 in 10.0 mi West 5.8 mph - N/A   Scattered Clouds
5:50 PM 91.4 °F 95.4 °F 68.0 °F 46% 29.93 in 10.0 mi WNW 8.1 mph - N/A   Partly Cloudy
6:50 PM 89.6 °F 94.7 °F 69.8 °F 52% 29.93 in 10.0 mi WNW 5.8 mph - N/A   Partly Cloudy
7:50 PM 82.4 °F 88.2 °F 73.4 °F 74% 29.93 in 10.0 mi Calm Calm - N/A   Clear
8:15 PM 77.0 °F - 75.2 °F 94% 29.94 in 10.0 mi Calm Calm - N/A   Clear
8:35 PM 77.0 °F - 73.4 °F 89% 29.94 in 8.0 mi Calm Calm - N/A   Clear
8:55 PM 75.2 °F - 73.4 °F 94% 29.94 in 9.0 mi Calm Calm - N/A   Clear
9:15 PM 75.2 °F - 73.4 °F 94% 29.95 in 9.0 mi Calm Calm - N/A   Clear
9:35 PM 73.4 °F - 71.6 °F 94% 29.95 in 9.0 mi Calm Calm - N/A   Clear
9:55 PM 73.4 °F - 71.6 °F 94% 29.96 in 8.0 mi Calm Calm - N/A   Clear
10:15 PM 73.4 °F - 71.6 °F 94% 29.96 in 8.0 mi Calm Calm - N/A   Clear
10:35 PM 73.4 °F - 73.4 °F 100% 29.97 in 8.0 mi Calm Calm - N/A   Clear
10:55 PM 73.4 °F - 71.6 °F 94% 29.97 in 8.0 mi Calm Calm - N/A   Clear
11:15 PM 73.4 °F - 71.6 °F 94% 29.97 in 9.0 mi Calm Calm - N/A   Clear
11:35 PM 73.4 °F - 71.6 °F 94% 29.97 in 9.0 mi Calm Calm - N/A   Clear
11:55 PM 73.4 °F - 71.6 °F 94% 29.97 in 7.0 mi Calm Calm - N/A   Clear